Flag for Germany Weather past 2 weeks in Mechernich, North Rhine-Westphalia, Germany

Now
66 °F

Partly sunny.


Feels Like: 66 °F
Forecast: 56 / 69 °F
Wind: 5 mph from Northeast

Location: Noervenich

Current Time: Jul 24, 2014 at 10:27:48 PM

Latest Report: Jul 24, 2014 at 9:20 PM


Visibility: N/A

Pressure: 29.98 "Hg

Humidity: 73%

Dew point: 57 °F

Location of MechernichLocation

Historic Weather in Mechernich — Graph

°F

Mechernich temperature yesterday

Maximum temperature yesterday: 84 °F (at 3:52 PM)
Minimum temperature yesterday: 63 °F (at 5:20 AM)
Average temperature yesterday: 73 °F

Past Weeks' High & Low Weather Summary

 TemperatureHumidityPressure
High93 °F (Jul 18, 5:20 PM)100% (Jul 9, 9:20 PM)30.18 "Hg (Jul 9, 9:20 PM)
Low55 °F (Jul 14, 5:20 AM)28% (Jul 18, 5:20 PM)29.68 "Hg (Jul 9, 8:20 PM)
Average69 °F77%29.96 "Hg
* Reported Jul 9 8:20 PM — Jul 24 8:20 PM, Mechernich, Weather by CustomWeather, © 2014

Note: Actual official high and low records may vary slightly from our data, if they occured in-between our weather recording intervals... More about our weather records

Advertising

Mechernich weather history for previous 24 hours

 ConditionsComfort  
Time TempWeatherWind HumidityBarometerVisibility
8:20 PM
Jul 24
68 °FSprinkles. Partly sunny.5 mph73%29.95 "HgN/A
7:20 PM68 °FThundershowers. Broken clouds.6 mph78%29.95 "HgN/A
6:20 PM70 °FThunderstorms. Broken clouds.2 mph78%29.95 "HgN/A
5:20 PM70 °FThundershowers. Broken clouds.3 mph78%29.98 "HgN/A
5:04 PM70 °FThunderstorms. Broken clouds.2 mph69%29.98 "HgN/A
4:20 PM70 °FThundershowers. Broken clouds.3 mph69%29.95 "HgN/A
3:20 PM72 °FThunderstorms. Partly sunny.9 mph57%29.95 "HgN/A
2:59 PM79 °FThunderstorms. Scattered clouds.5 mph42%29.95 "HgN/A
2:20 PM77 °FScattered clouds.5 mph47%29.95 "HgN/A
1:20 PM79 °FPassing clouds.3 mph45%29.95 "HgN/A
12:20 PM77 °FScattered clouds.6 mph51%29.98 "HgN/A
11:20 AM75 °FPartly sunny.2 mph50%29.98 "HgN/A
10:20 AM73 °FPartly sunny.3 mph57%29.98 "HgN/A
9:20 AM72 °FPartly sunny.6 mph65%29.98 "HgN/A
8:20 AM68 °FScattered clouds.2 mph78%29.98 "HgN/A
7:20 AM63 °FFog.No wind88%29.98 "HgN/A
6:20 AM61 °FFog.1 mph88%29.98 "HgN/A
5:20 AM63 °FPassing clouds.2 mph94%29.98 "HgN/A
4:20 AM63 °FPassing clouds.1 mph94%29.98 "HgN/A
3:20 AM64 °FPassing clouds.3 mph88%29.98 "HgN/A
2:20 AM64 °FPassing clouds.1 mph94%29.98 "HgN/A
1:20 AM64 °FPassing clouds.3 mph94%30.01 "HgN/A
12:20 AM66 °FPassing clouds.No wind88%30.01 "HgN/A
11:20 PM
Jul 23
68 °FPassing clouds.No wind83%30.01 "HgN/A
10:20 PM70 °FScattered clouds.No wind78%30.01 "HgN/A
Weather by CustomWeather, © 2014

See weather overviewHow to use our weather pages